Location: Goettingen
(51.5300°N, 9.9433°E)
Time: 22:32:53
(UTC+02:00)

N. Korean satellite - Pass Details

Date: 28 September 2021
Orbit: 450 x 494 km, 97.3° (Epoch: 28 October)

Event Time Altitude Azimuth Distance (km) Brightness Sun altitude
Rises 05:38:16 0° 29° (NNE) 2,538 10.9 -15.8°
Reaches altitude 10° 05:41:01 10° 53° (NE) 1,664 10.4 -15.4°
Maximum altitude 05:43:12 15° 90° (E) 1,369 9.9 -15.1°
Drops below altitude 10° 05:45:23 10° 128° (SE) 1,670 9.8 -14.8°
Sets 05:48:09 0° 152° (SSE) 2,553 10.4 -14.4°
